Calaveras, Mexico

2:03 AM MST on February 26, 2017 (GMT -0700)
Gen Rafael Buelna International

Weather History for MMMZ - September, 2012

Change the Weather History Date:

Friday, September 7, 2012

  Actual Average Record
Temperature  
Mean Temperature 82 °F -  
Max Temperature 89 °F 86 °F 93 °F (2015)
Min Temperature 75 °F 74 °F 71 °F (2016)
Cooling Degree Days 17    
Growing Degree Days 32 (Base 50)    
Moisture  
Dew Point 75 °F    
Average Humidity 83    
Maximum Humidity 94    
Minimum Humidity 65    
Precipitation  
Precipitation 0.25 in - - ()
Sea Level Pressure  
Sea Level Pressure 29.83 in    
Wind  
Wind Speed 7 mph ()    
Max Wind Speed 17 mph    
Max Gust Speed -    
Visibility 9.6 miles    
Events Rain , Thunderstorm    
Averages and records for this station are not official NWS values.
T = Trace of Precipitation, MM = Missing Value Source: Averaged Metar Reports

Daily Weather History Graph

Daily Weather History Graph

Search for Another Location

Airport or City:

Trip Planner

Search our weather history database for the weather conditions in past years. The results will help you decide how hot, cold, wet, or windy it might be!

Date:

Astronomy

Sep. 07, 2012 Rise Set
Actual Time 6:49 AM MDT 7:16 PM MDT
Civil Twilight 6:26 AM MDT 7:38 PM MDT
Nautical Twilight 6:00 AM MDT 8:05 PM MDT
Astronomical Twilight 5:33 AM MDT 8:31 PM MDT
Moon No Moon Rise 12:55 PM MDT (9/7)
Length of Visible Light 13h 12m
Length of Day
12h 26m
Waning Gibbous, 58% of the Moon is Illuminated
Sep 7
Waning Gibbous
Sep 8
Last Quarter
Sep 15
New
Sep 22
First Quarter
Sep 29
Full

Hourly Weather History & Observations

Time (MDT) Temp. Heat Index Dew Point Humidity Pressure Visibility Wind Dir Wind Speed Gust Speed Precip Events Conditions
12:46 AM 80.6 °F 87.1 °F 77.0 °F 89% 29.86 in 8.0 mi North 5.8 mph - N/A   Partly Cloudy
1:44 AM 78.8 °F - 75.2 °F 89% 29.86 in 8.0 mi North 4.6 mph - N/A   Scattered Clouds
2:45 AM 78.8 °F - 75.2 °F 89% 29.86 in 7.0 mi South 6.9 mph - N/A Thunderstorm Thunderstorm
3:45 AM 78.8 °F - 75.2 °F 89% 29.85 in 7.0 mi SSE 5.8 mph - N/A Thunderstorm Thunderstorm
4:46 AM 78.8 °F - 75.2 °F 89% 29.85 in 7.0 mi WNW 9.2 mph - N/A   Overcast
5:46 AM 78.8 °F - 75.2 °F 89% 29.86 in 7.0 mi NNE 6.9 mph - N/A   Overcast
6:46 AM 78.8 °F - 75.2 °F 89% 29.86 in 8.0 mi West 6.9 mph - N/A   Overcast
7:45 AM 78.8 °F - 75.2 °F 89% 29.88 in 8.0 mi West 5.8 mph - N/A   Overcast
8:43 AM 80.6 °F 87.1 °F 77.0 °F 89% 29.89 in 8.0 mi West 8.1 mph - N/A   Mostly Cloudy
9:42 AM 82.4 °F 90.9 °F 77.0 °F 84% 29.89 in 8.0 mi West 6.9 mph - N/A   Mostly Cloudy
10:40 AM 84.2 °F 96.1 °F 78.8 °F 84% 29.86 in 8.0 mi NNW 6.9 mph - N/A   Scattered Clouds
11:47 AM 87.8 °F 102.5 °F 78.8 °F 75% 29.86 in 10.0 mi WNW 9.2 mph - N/A   Scattered Clouds
12:40 PM 87.8 °F 102.5 °F 78.8 °F 75% 29.84 in 10.0 mi West 11.5 mph - N/A   Scattered Clouds
1:41 PM 89.6 °F 104.7 °F 78.8 °F 70% 29.81 in 10.0 mi WSW 12.7 mph - N/A   Partly Cloudy
2:41 PM 89.6 °F 104.7 °F 78.8 °F 70% 29.79 in 12.0 mi WSW 12.7 mph - N/A   Partly Cloudy
3:43 PM 87.8 °F 102.5 °F 78.8 °F 75% 29.76 in 14.0 mi West 16.1 mph - N/A   Scattered Clouds
4:41 PM 87.8 °F 102.5 °F 78.8 °F 75% 29.75 in 14.0 mi West 17.3 mph - N/A   Scattered Clouds
5:42 PM 87.8 °F 102.5 °F 78.8 °F 75% 29.79 in 10.0 mi WNW 10.4 mph - N/A   Mostly Cloudy
6:14 PM 82.4 °F 86.3 °F 69.8 °F 66% 29.77 in 15.0 mi North 10.4 mph - N/A Thunderstorm Thunderstorm
6:40 PM 80.6 °F 83.2 °F 68.0 °F 65% 29.75 in 15.0 mi WNW 10.4 mph - N/A Thunderstorm Thunderstorm
7:40 PM 75.2 °F - 68.0 °F 78% 29.80 in 12.0 mi ENE 11.5 mph - N/A   Overcast
8:40 PM 75.2 °F - 71.6 °F 89% 29.81 in 10.0 mi East 6.9 mph - N/A   Overcast
9:50 PM 75.2 °F - 73.4 °F 94% 29.81 in 8.0 mi NNW 5.8 mph - N/A Rain Light Rain
10:42 PM 75.2 °F - 73.4 °F 94% 29.82 in 8.0 mi North 8.1 mph - N/A Rain Light Rain
11:46 PM 75.2 °F - 73.4 °F 94% 29.83 in 8.0 mi North 6.9 mph - N/A   Overcast